User: anonymous   Login
Location: Cran-Gévrier
(45.9039°N, 6.1012°E)
Time: 23:33:12
(UTC+00:00)
Language:

Cosmos-2242 - Orbit

View from above orbital plane
View from above orbital plane
View from above satellite
View from above satellite

Ground track
Ground track

The orbit data is extracted from the following two-line orbital elements,

1 22626U 93024A   23154.46961318  .00001775  00000-0  18160-3 0  9998
2 22626  82.5197 147.5783 0020294  88.6732 271.6812 14.89838867629969
Epoch (UTC): 03 June 2023 11:16:14
Eccentricity: 0.0020294
inclination: 82.5197°
perigee height: 584 km
apogee height: 612 km
right ascension of ascending node: 147.5783°
argument of perigee: 88.6732°
revolutions per day: 14.89838867
mean anomaly at epoch: 271.6812°
orbit number at epoch: 62996

The dashed part of the orbit path shows where the satellite is in the earth's shadow,  

DLR